This demonstration page uses our WeatherBlox Daily Observations layout. Learn more.

Left ArrowRight Arrow

39.92423, -83.80882

Hourly Observations for January 26, 2018

Temp ( °F °C ) Dew Point ( °F °C ) Humidity (%) Winds ( mph kmh ) Pressure ( in mb ) Visibility ( mi km ) Precip ( " mm )
12:56 am 00:56 Clear 32 undefined 25 -3.9 75 75 SSE 9 15 30.42 1030 10 16 N/A
1:56 am 01:56 Clear 32 undefined 26 -3.3 79 79 SSE 8 13 30.42 1030 10 16 N/A
2:56 am 02:56 Clear 34 1.1 25 -3.9 70 70 S 6 9 30.43 1030 10 16 N/A
3:56 am 03:56 Clear 37 2.8 25 -3.9 62 62 SSW 7 11 30.42 1030 10 16 N/A
4:56 am 04:56 Clear 36 2.2 25 -3.9 64 64 S 6 9 30.43 1031 10 16 N/A
5:56 am 05:56 Clear 36 2.2 25 -3.9 64 64 SSW 10 17 30.44 1031 10 16 N/A
6:56 am 06:56 Clear 36 2.2 25 -3.9 64 64 SSW 10 17 30.46 1032 10 16 N/A
7:56 am 07:56 Sunny 35 1.7 25 -3.9 67 67 SSW 8 13 30.47 1032 10 16 N/A
8:56 am 08:56 Sunny 38 3.3 26 -3.3 62 62 SSW 12 19 30.47 1032 10 16 N/A
9:56 am 09:56 Sunny 41 5 28 -2.2 60 60 SSW 14 22 30.47 1032 10 16 N/A
10:56 am 10:56 Sunny 44 6.7 29 -1.7 55 55 SSW 13 20 30.47 1032 10 16 N/A
11:56 am 11:56 Sunny 47 8.3 30 -1.1 52 52 SSW 10 17 30.45 1031 10 16 N/A
12:56 pm 12:56 Sunny 50 10 30 -1.1 46 46 SW 16 26 30.41 1030 10 16 N/A
1:56 pm 13:56 Sunny 52 11.1 30 -1.1 43 43 SSW 13 20 30.37 1029 10 16 N/A
2:56 pm 14:56 Sunny 53 11.7 28 -2.2 38 38 SSW 14 22 30.35 1028 10 16 N/A
3:56 pm 15:56 Sunny 54 12.2 28 -2.2 37 37 SSW 13 20 30.34 1028 10 16 N/A
4:56 pm 16:56 Sunny 52 11.1 27 -2.8 38 38 S 9 15 30.33 1027 10 16 N/A
5:56 pm 17:56 Clear 48 8.9 28 -2.2 46 46 S 10 17 30.34 1027 10 16 N/A
6:56 pm 18:56 Clear 47 8.3 28 -2.2 48 48 S 10 17 30.34 1028 10 16 N/A
7:56 pm 19:56 Clear 47 8.3 28 -2.2 48 48 S 13 20 30.33 1027 10 16 N/A
8:56 pm 20:56 Clear 46 7.8 27 -2.8 47 47 S 10 17 30.31 1026 10 16 N/A
9:56 pm 21:56 Clear 46 7.8 27 -2.8 47 47 S 10 17 30.31 1026 10 16 N/A
10:56 pm 22:56 Clear 47 8.3 27 -2.8 46 46 S 12 19 30.29 1026 10 16 N/A
11:56 pm 23:56 Clear 47 8.3 25 -3.9 42 42 SSW 13 20 30.27 1025 10 16 N/A

Powered by AerisWeather